Location: Budapest
(47.4979°N, 19.0402°E)
Time: 06:10:17
(UTC+02:00)

N. Korean satellite - Visible Passes

Search period start: 23 October 2017 00:00
Search period end: 01 November 2017 23:00
Orbit: 459 x 517 km, 97.2° (Epoch: 22 October)

Date Brightness Start Highest point End Pass type
(mag) Time Alt. Az. Time Alt. Az. Time Alt. Az.
23 Oct 10.1 06:34:18 10° ENE 06:36:00 13° E 06:37:42 10° ESE visible
23 Oct 6.6 18:45:35 10° S 18:49:05 77° WSW 18:52:34 10° NNW visible
24 Oct 6.6 18:22:22 10° SSE 18:25:45 53° ENE 18:29:08 10° N visible
24 Oct 10.1 19:58:30 10° WSW 19:59:37 11° W 20:00:43 10° WNW visible
25 Oct 9.3 19:33:24 10° SW 19:36:03 20° W 19:38:43 10° NW visible
26 Oct 8.1 19:09:19 10° SSW 19:12:34 37° W 19:15:50 10° NNW visible
27 Oct 10.1 06:34:18 10° ENE 06:36:06 13° E 06:37:55 10° ESE visible
27 Oct 6.6 18:45:41 10° S 18:49:09 76° W 18:52:38 10° NNW visible
28 Oct 6.5 18:22:26 10° SSE 18:25:49 53° ENE 18:29:12 10° N visible
28 Oct 10.1 19:58:41 10° WSW 19:59:40 11° W 20:00:41 10° WNW visible
29 Oct 7.4 16:59:32 10° SE 17:02:32 28° ENE 17:05:33 10° N visible
29 Oct 9.3 18:33:29 10° SW 18:36:06 20° W 18:38:44 10° NW visible
30 Oct 8.1 18:09:22 10° SSW 18:12:36 37° W 18:15:51 10° NNW visible
31 Oct 10.0 05:34:16 10° ENE 05:36:09 14° E 05:38:03 10° ESE visible
31 Oct 6.6 17:45:43 10° S 17:49:09 75° WSW 17:52:38 10° NNW visible
01 Nov 6.5 17:22:27 10° SSE 17:25:49 54° ENE 17:29:12 10° N visible
01 Nov 10.1 18:58:45 10° WSW 18:59:41 11° W 19:00:37 10° WNW visible
